Location: Rowland
(34.5359°N, 79.2929°W)
Time: 11:02:21
(UTC+00:00)

Envisat - Visible Passes

Search period start: 09 August 2022 00:00
Search period end: 19 August 2022 00:00
Orbit: 763 x 765 km, 98.2° (Epoch: 09 August)

Date Brightness Start Highest point End Pass type
(mag) Time Alt. Az. Time Alt. Az. Time Alt. Az.
09 Aug 5.8 08:20:03 10° ENE 08:21:22 11° E 08:22:40 10° ESE visible
09 Aug 3.0 09:55:43 10° N 10:00:46 68° WNW 10:05:47 10° SSW visible
10 Aug 3.9 09:18:54 10° NNE 09:23:50 50° E 09:28:44 10° S visible
11 Aug 5.3 08:42:56 10° NE 08:46:44 21° E 08:50:30 10° SE visible
12 Aug 3.0 09:43:53 10° NNE 09:48:59 88° WNW 09:54:03 10° SSW visible
13 Aug 4.4 09:07:17 10° NNE 09:12:00 38° E 09:16:41 10° SSE visible
14 Aug 5.6 08:31:46 10° NE 08:34:50 16° E 08:37:51 10° SE visible
14 Aug 3.3 10:09:10 10° N 10:14:02 48° WNW 10:18:53 10° SSW visible
15 Aug 3.3 09:32:06 10° NNE 09:37:11 71° ESE 09:42:13 10° S visible
16 Aug 4.8 08:55:44 10° NE 09:00:08 29° E 09:04:30 10° SSE visible
17 Aug 5.8 08:21:06 10° ENE 08:22:54 12° E 08:24:42 10° ESE visible
17 Aug 3.0 09:57:14 10° N 10:02:16 64° WNW 10:07:16 10° SSW visible
18 Aug 3.7 09:20:23 10° NNE 09:25:21 53° E 09:30:17 10° S visible
